Weather History for KSGH - October, 2012

Change the Weather History Date:

Wednesday, October 24, 2012

  Actual Average (KDAY) Record (KDAY)
Temperature  
Mean Temperature 67 °F 51 °F  
Max Temperature 77 °F 61 °F 82 °F (1899)
Min Temperature 57 °F 42 °F 23 °F (1981)
Degree Days  
Heating Degree Days 0 14  
Month to date heating degree days 252  
Since 1 July heating degree days 342  
Cooling Degree Days 2 0  
Month to date cooling degree days 10  
Year to date cooling degree days 891  
Growing Degree Days 17 (Base 50)    
Moisture  
Dew Point 50 °F    
Average Humidity 57    
Maximum Humidity 75    
Minimum Humidity 35    
Precipitation  
Precipitation 0.00 in 0.09 in 1.26 in (2001)
Month to date precipitation 2.27  
Year to date precipitation 33.88  
Snow  
Snow 0.00 in 0.00 in - ()
Month to date snowfall 0.1  
Since 1 July snowfall 0.1  
Since 1 September snowfall 0.1  
Snow Depth -    
Sea Level Pressure  
Sea Level Pressure 30.08 in    
Wind  
Wind Speed 10 mph (SSW)    
Max Wind Speed 16 mph    
Max Gust Speed 28 mph    
Visibility 7 miles    
Events      
T = Trace of Precipitation, MM = Missing Value Source: NWS Daily Summary

Daily Weather History Graph

Daily Weather History Graph

Search for Another Location

Airport or City:

Trip Planner

Search our weather history database for the weather conditions in past years. The results will help you decide how hot, cold, wet, or windy it might be!

Date:

Astronomy

Oct. 24, 2012 Rise Set
Actual Time 7:55 AM EDT 6:42 PM EDT
Civil Twilight 7:28 AM EDT 7:10 PM EDT
Nautical Twilight 6:56 AM EDT 7:41 PM EDT
Astronomical Twilight 6:25 AM EDT 8:13 PM EDT
Moon 3:57 PM EDT (10/24) 2:50 AM EDT (10/24)
Length of Visible Light 11h 42m
Length of Day
10h 46m
Waxing Gibbous, 76% of the Moon is Illuminated
Oct 24
Waxing Gibbous
Oct 29
Full
Nov 6
Last Quarter
Nov 13
New
Nov 20
First Quarter

Hourly Weather History & Observations

Time (EDT) Temp. Dew Point Humidity Pressure Visibility Wind Dir Wind Speed Gust Speed Precip Events Conditions
12:56 AM 63.9 °F 52.0 °F 65% 30.08 in 6.0 mi WSW 16.1 mph 27.6 mph N/A   Haze
1:56 AM 61.0 °F 52.9 °F 75% 30.07 in 7.0 mi SSW 4.6 mph - N/A   Overcast
2:56 AM 61.0 °F 52.0 °F 72% 30.08 in 7.0 mi SW 8.1 mph - N/A   Overcast
3:56 AM 61.0 °F 50.9 °F 69% 30.07 in 8.0 mi South 9.2 mph - N/A   Mostly Cloudy
4:56 AM 61.0 °F 52.0 °F 72% 30.08 in 7.0 mi South 8.1 mph - N/A   Overcast
5:56 AM 59.9 °F 50.9 °F 72% 30.08 in 8.0 mi South 8.1 mph - N/A   Mostly Cloudy
6:56 AM 59.0 °F 50.0 °F 72% 30.10 in 8.0 mi South 6.9 mph - N/A   Scattered Clouds
7:56 AM 57.9 °F 48.9 °F 72% 30.12 in 8.0 mi South 6.9 mph - N/A   Scattered Clouds
8:56 AM 59.0 °F 50.0 °F 72% 30.13 in 7.0 mi South 6.9 mph - N/A   Partly Cloudy
9:56 AM 63.9 °F 50.9 °F 63% 30.13 in 7.0 mi South 8.1 mph - N/A   Partly Cloudy
10:56 AM 66.9 °F 50.9 °F 56% 30.12 in 6.0 mi SSW 11.5 mph - N/A   Haze
11:56 AM 70.9 °F 52.0 °F 51% 30.11 in 6.0 mi SW 10.4 mph - N/A   Haze
12:56 PM 73.9 °F 52.0 °F 46% 30.09 in 7.0 mi SSW 11.5 mph - N/A   Clear
1:56 PM 75.9 °F 50.9 °F 41% 30.06 in 7.0 mi SSW 11.5 mph - N/A   Clear
2:56 PM 77.0 °F 50.0 °F 39% 30.05 in 6.0 mi SW 12.7 mph - N/A   Haze
3:56 PM 77.9 °F 47.8 °F 35% 30.04 in 7.0 mi SW 13.8 mph - N/A   Clear
4:56 PM 77.0 °F 48.9 °F 37% 30.04 in 7.0 mi SSW 9.2 mph - N/A   Clear
5:56 PM 74.8 °F 50.0 °F 42% 30.04 in 6.0 mi SSW 9.2 mph - N/A   Haze
6:56 PM 70.0 °F 50.0 °F 49% 30.05 in 7.0 mi South 4.6 mph - N/A   Clear
7:56 PM 68.0 °F 48.9 °F 50% 30.06 in 7.0 mi South 4.6 mph - N/A   Clear
8:56 PM 65.8 °F 50.0 °F 57% 30.06 in 8.0 mi South 5.8 mph - N/A   Clear
9:56 PM 64.9 °F 48.9 °F 56% 30.06 in 7.0 mi South 6.9 mph - N/A   Clear
10:56 PM 63.0 °F 47.8 °F 58% 30.07 in 7.0 mi South 6.9 mph - N/A   Clear
11:56 PM 61.9 °F 46.9 °F 58% 30.06 in 8.0 mi South 5.8 mph - N/A   Clear